Coolangatta/Gold Coast Airport

Airport
ICAO code: 
YBCG
IATA Code: 
OOL
Summary
ICAO Region: 
APAC
Territory: 
Location: 
Coolangatta, Queensland
Serving: 
Coolangatta
Elevation: 
21 ft
Coordinates: 
Aerial View: 
28° 9' 54.223" S, 153° 30' 34.736" E
Metar
Observation
YBCG 240700Z AUTO 15013KT 9999 // NCD 25/19 Q1008
Station
Coolangatta Airport Aws
Date/Time
2022-01-24 07:00:00
Wind direction
150°
Wind speed
13 kts
Lowest cloud amount
no clouds detected
Temperature
25°C
Dew point
19°C
Humidity
69%
QNH
1008 hPa
Weather condition
n/a

Serves the city of Coolangatta.

Climatology

Humid “subtropical” climate (Köppen climate classification Cfa) - characterized by hot, humid summers and cool winters. Significant amounts of precipitation occur in all seasons in most areas. Winter rainfall (and sometimes snowfall) is associated with large storms that the westerlies steer from west to east. Most summer rainfall occurs during thunderstorms and occasional tropical storms (hurricanes).

Runways

Designator Length Width Surface Rops
17/35 582 18 ASP Yes/Yes
14/32 2042 45 ASP Yes/Yes
Airport map: 
Aerial View: 

Accidents and Serious Incidents at or in the vicinity of YBCG

SKYbrary Partners:

Safety knowledge contributed by: